| time (UTC) | temp F | wind direction | speed knots | gust knots | rain 1hr in | rain 24hr in | rain mn in | humidity % | barometer mb |
| 20260510164607 | 82 | 261 | 0.0 | 5.2 | 0.00 | 0.00 | 0.00 | 57 | 1015.2 |
| 20260510164105 | 83 | 260 | 0.0 | 5.2 | 0.00 | 0.00 | 0.00 | 59 | 1015.3 |
| 20260510163552 | 83 | 180 | 0.0 | 0.9 | 0.00 | 0.00 | 0.00 | 62 | 1015.4 |
| 20260510163533 | 82 | 238 | 0.0 | 3.5 | 0.00 | 0.00 | 0.00 | 62 | 1015.3 |
| 20260510162545 | 82 | 170 | 0.9 | 4.3 | 0.00 | 0.00 | 0.00 | 60 | 1015.3 |
| 20260510162038 | 82 | 124 | 0.9 | 4.3 | 0.00 | 0.00 | 0.00 | 60 | 1015.3 |
| 20260510161538 | 82 | 167 | 0.9 | 3.5 | 0.00 | 0.00 | 0.00 | 62 | 1015.4 |
| 20260510161031 | 82 | 143 | 0.9 | 3.5 | 0.00 | 0.00 | 0.00 | 63 | 1015.4 |
| 20260510160529 | 82 | 142 | 0.0 | 3.5 | 0.00 | 0.00 | 0.00 | 68 | 1015.3 |
| 20260510160029 | 81 | 162 | 0.9 | 4.3 | 0.00 | 0.00 | 0.00 | 66 | 1015.4 |
| 20260510155800 | 81 | 200 | 0.0 | 4.3 | 0.00 | 0.00 | 0.00 | 70 | 1015.4 |
| 20260510155020 | 80 | 168 | 0.0 | 0.0 | 0.00 | 0.00 | 0.00 | 69 | 1015.3 |
| 20260510154729 | 80 | 246 | 0.0 | 0.0 | 0.00 | 0.00 | 0.00 | 70 | 1015.2 |
| 20260510154010 | 79 | 179 | 0.0 | 0.0 | 0.00 | 0.00 | 0.00 | 71 | 1015.1 |
| 20260510153506 | 79 | 205 | 0.0 | 0.0 | 0.00 | 0.00 | 0.00 | 69 | 1015.3 |
| 20260510153003 | 78 | 273 | 0.0 | 1.7 | 0.00 | 0.00 | 0.00 | 71 | 1015.1 |
| 20260510152500 | 78 | 274 | 0.0 | 1.7 | 0.00 | 0.00 | 0.00 | 74 | 1015.1 |
| 20260510151953 | 77 | 275 | 0.0 | 0.0 | 0.00 | 0.00 | 0.00 | 73 | 1015.1 |
| 20260510151453 | 77 | 245 | 0.0 | 0.0 | 0.00 | 0.00 | 0.00 | 76 | 1015.0 |
| 20260510150951 | 76 | 329 | 0.0 | 0.0 | 0.00 | 0.00 | 0.00 | 78 | 1015.1 |
| 20260510150449 | 76 | 34 | 0.0 | 0.0 | 0.00 | 0.00 | 0.00 | 79 | 1015.2 |
| 20260510145947 | 75 | 251 | 0.0 | 0.0 | 0.00 | 0.00 | 0.00 | 82 | 1015.2 |
| 20260510145445 | 74 | 252 | 0.0 | 0.0 | 0.00 | 0.00 | 0.00 | 83 | 1015.1 |
| 20260510144929 | 73 | 231 | 0.0 | 0.0 | 0.00 | 0.00 | 0.00 | 88 | 1015.1 |
| 20260510144422 | 72 | 263 | 0.0 | 2.6 | 0.00 | 0.00 | 0.00 | 89 | 1014.9 |
| 20260510143913 | 72 | 263 | 0.0 | 2.6 | 0.00 | 0.00 | 0.00 | 92 | 1015.0 |
| 20260510143408 | 71 | 270 | 0.0 | 1.7 | 0.00 | 0.00 | 0.00 | 94 | 1015.0 |
| 20260510143142 | 71 | 207 | 0.0 | 1.7 | 0.00 | 0.00 | 0.00 | 95 | 1015.0 |
| 20260510142410 | 70 | 215 | 0.0 | 0.0 | 0.00 | 0.00 | 0.00 | 96 | 1015.0 |
| 20260510141856 | 70 | 214 | 0.0 | 0.0 | 0.00 | 0.00 | 0.00 | 96 | 1014.9 |
| 20260510141611 | 69 | 213 | 0.0 | 0.0 | 0.00 | 0.00 | 0.00 | 96 | 1014.8 |
| 20260510140851 | 68 | 281 | 0.0 | 0.0 | 0.00 | 0.00 | 0.00 | 96 | 1014.8 |
| 20260510140353 | 67 | 281 | 0.0 | 0.0 | 0.00 | 0.00 | 0.00 | 96 | 1014.8 |
| 20260510135843 | 67 | 297 | 0.0 | 2.6 | 0.00 | 0.00 | 0.00 | 96 | 1014.8 |
| 20260510135333 | 67 | 297 | 0.0 | 2.6 | 0.00 | 0.00 | 0.00 | 96 | 1014.7 |
| 20260510134828 | 67 | 302 | 0.0 | 0.9 | 0.00 | 0.00 | 0.00 | 96 | 1014.6 |
| 20260510134312 | 66 | 302 | 0.0 | 0.9 | 0.00 | 0.00 | 0.00 | 96 | 1014.5 |
| 20260510134034 | 66 | 303 | 0.0 | 0.0 | 0.00 | 0.00 | 0.00 | 96 | 1014.5 |
| 20260510133312 | 65 | 304 | 0.0 | 0.9 | 0.00 | 0.00 | 0.00 | 96 | 1014.5 |
| 20260510132803 | 65 | 304 | 0.0 | 2.6 | 0.00 | 0.00 | 0.00 | 96 | 1014.4 |
| 20260510132255 | 65 | 304 | 0.0 | 2.6 | 0.00 | 0.00 | 0.00 | 96 | 1014.4 |
| 20260510131747 | 64 | 341 | 0.0 | 0.0 | 0.00 | 0.00 | 0.00 | 96 | 1014.3 |
| 20260510131242 | 63 | 341 | 0.0 | 0.0 | 0.00 | 0.00 | 0.00 | 96 | 1014.3 |
| 20260510130728 | 63 | 343 | 0.0 | 0.0 | 0.00 | 0.00 | 0.00 | 96 | 1014.4 |
| 20260510130209 | 62 | 343 | 0.0 | 0.0 | 0.00 | 0.00 | 0.00 | 96 | 1014.2 |
| 20260510130144 | 62 | 343 | 0.0 | 0.0 | 0.00 | 0.00 | 0.00 | 96 | 1014.3 |
| 20260510125207 | 61 | 343 | 0.0 | 0.0 | 0.00 | 0.00 | 0.00 | 96 | 1014.3 |
| 20260510124658 | 60 | 343 | 0.0 | 0.0 | 0.00 | 0.00 | 0.00 | 96 | 1014.1 |
| 20260510124154 | 59 | 343 | 0.0 | 0.0 | 0.00 | 0.00 | 0.00 | 96 | 1014.1 |
| 20260510123652 | 58 | 343 | 0.0 | 0.0 | 0.00 | 0.00 | 0.00 | 96 | 1014.0 |
| 20260510123359 | 57 | 343 | 0.0 | 0.0 | 0.00 | 0.00 | 0.00 | 96 | 1014.0 |
| 20260510122626 | 56 | 343 | 0.0 | 0.0 | 0.00 | 0.00 | 0.00 | 95 | 1014.0 |
| 20260510122119 | 56 | 343 | 0.0 | 0.0 | 0.00 | 0.00 | 0.00 | 95 | 1014.0 |
| 20260510122052 | 55 | 343 | 0.0 | 0.0 | 0.00 | 0.00 | 0.00 | 95 | 1013.9 |
| 20260510121103 | 55 | 343 | 0.0 | 0.0 | 0.00 | 0.00 | 0.00 | 95 | 1013.8 |
| 20260510120546 | 55 | 343 | 0.0 | 0.0 | 0.00 | 0.00 | 0.00 | 95 | 1013.8 |
| 20260510120250 | 54 | 343 | 0.0 | 0.0 | 0.00 | 0.00 | 0.00 | 95 | 1013.6 |
| 20260510115739 | 54 | 343 | 0.0 | 0.0 | 0.00 | 0.00 | 0.00 | 95 | 1013.6 |
| 20260510115226 | 54 | 343 | 0.0 | 0.0 | 0.00 | 0.00 | 0.00 | 95 | 1013.6 |
| 20260510114506 | 54 | 343 | 0.0 | 0.0 | 0.00 | 0.00 | 0.00 | 95 | 1013.8 |
| 20260510113958 | 54 | 343 | 0.0 | 0.0 | 0.00 | 0.00 | 0.00 | 95 | 1013.5 |
| 20260510113454 | 54 | 343 | 0.0 | 0.0 | 0.00 | 0.00 | 0.00 | 95 | 1013.3 |
| 20260510112953 | 54 | 343 | 0.0 | 0.0 | 0.00 | 0.00 | 0.00 | 95 | 1013.2 |
| 20260510112451 | 54 | 343 | 0.0 | 0.0 | 0.00 | 0.00 | 0.00 | 95 | 1013.2 |
| 20260510111938 | 54 | 343 | 0.0 | 0.0 | 0.00 | 0.00 | 0.00 | 95 | 1013.3 |
| 20260510111431 | 54 | 343 | 0.0 | 0.0 | 0.00 | 0.00 | 0.00 | 95 | 1013.3 |
| 20260510110919 | 54 | 343 | 0.0 | 0.0 | 0.00 | 0.00 | 0.00 | 95 | 1013.2 |
| 20260510110402 | 54 | 343 | 0.0 | 0.0 | 0.00 | 0.00 | 0.00 | 95 | 1013.1 |
| 20260510110125 | 54 | 343 | 0.0 | 0.0 | 0.00 | 0.00 | 0.00 | 95 | 1013.0 |
| 20260510105351 | 54 | 343 | 0.0 | 0.0 | 0.00 | 0.00 | 0.00 | 95 | 1012.8 |
| 20260510105102 | 54 | 343 | 0.0 | 0.0 | 0.00 | 0.00 | 0.00 | 94 | 1012.7 |
| 20260510104313 | 53 | 343 | 0.0 | 0.0 | 0.00 | 0.00 | 0.00 | 94 | 1012.7 |
| 20260510103809 | 53 | 343 | 0.0 | 0.0 | 0.00 | 0.00 | 0.00 | 94 | 1012.6 |
| 20260510103258 | 53 | 343 | 0.0 | 0.0 | 0.00 | 0.00 | 0.00 | 94 | 1012.5 |
| 20260510102959 | 53 | 343 | 0.0 | 0.0 | 0.00 | 0.00 | 0.00 | 94 | 1012.5 |
| 20260510102220 | 54 | 343 | 0.0 | 0.0 | 0.00 | 0.00 | 0.00 | 94 | 1012.3 |
| 20260510101645 | 54 | 343 | 0.0 | 0.0 | 0.00 | 0.00 | 0.00 | 94 | 1012.3 |
| 20260510101107 | 54 | 343 | 0.0 | 0.0 | 0.00 | 0.00 | 0.00 | 94 | 1012.3 |
| 20260510100555 | 54 | 343 | 0.0 | 0.0 | 0.00 | 0.00 | 0.00 | 94 | 1012.3 |
| 20260510100113 | 54 | 343 | 0.0 | 0.0 | 0.00 | 0.00 | 0.00 | 94 | 1012.3 |
| 20260510095544 | 54 | 343 | 0.0 | 0.0 | 0.00 | 0.00 | 0.00 | 94 | 1012.3 |
| 20260510095257 | 54 | 343 | 0.0 | 0.0 | 0.00 | 0.00 | 0.00 | 94 | 1012.2 |
| 20260510094452 | 54 | 343 | 0.0 | 0.0 | 0.00 | 0.00 | 0.00 | 94 | 1012.1 |
| 20260510093948 | 54 | 343 | 0.0 | 0.0 | 0.00 | 0.00 | 0.00 | 94 | 1012.0 |
| 20260510093445 | 54 | 343 | 0.0 | 0.0 | 0.00 | 0.00 | 0.00 | 94 | 1012.0 |
| 20260510093208 | 54 | 343 | 0.0 | 0.0 | 0.00 | 0.00 | 0.00 | 94 | 1011.9 |
| 20260510092422 | 54 | 343 | 0.0 | 0.0 | 0.00 | 0.00 | 0.00 | 94 | 1011.7 |
| 20260510091921 | 54 | 343 | 0.0 | 0.0 | 0.00 | 0.00 | 0.00 | 94 | 1011.6 |
| 20260510091418 | 54 | 343 | 0.0 | 0.0 | 0.00 | 0.00 | 0.00 | 94 | 1011.5 |
| 20260510090908 | 54 | 343 | 0.0 | 0.0 | 0.00 | 0.00 | 0.00 | 94 | 1011.5 |
| 20260510090337 | 54 | 343 | 0.0 | 0.0 | 0.00 | 0.00 | 0.00 | 94 | 1011.6 |
| 20260510085800 | 54 | 343 | 0.0 | 0.0 | 0.00 | 0.00 | 0.00 | 94 | 1011.5 |
| 20260510085259 | 53 | 343 | 0.0 | 0.0 | 0.00 | 0.00 | 0.00 | 94 | 1011.6 |
| 20260510084757 | 53 | 343 | 0.0 | 0.0 | 0.00 | 0.00 | 0.00 | 94 | 1011.7 |
| 20260510084507 | 53 | 343 | 0.0 | 0.0 | 0.00 | 0.00 | 0.00 | 94 | 1011.6 |
| 20260510084345 | 53 | 343 | 0.0 | 0.0 | 0.00 | 0.00 | 0.00 | 94 | 1011.7 |
| 20260510083507 | 53 | 343 | 0.0 | 0.0 | 0.00 | 0.00 | 0.00 | 94 | 1011.5 |
| 20260510082723 | 53 | 343 | 0.0 | 0.0 | 0.00 | 0.00 | 0.00 | 94 | 1011.5 |
| 20260510082222 | 53 | 343 | 0.0 | 0.0 | 0.00 | 0.00 | 0.00 | 94 | 1011.5 |
| 20260510081701 | 53 | 343 | 0.0 | 0.0 | 0.00 | 0.00 | 0.00 | 94 | 1011.5 |
| 20260510081154 | 53 | 343 | 0.0 | 0.0 | 0.00 | 0.00 | 0.00 | 94 | 1011.5 |
| 20260510080629 | 53 | 343 | 0.0 | 0.0 | 0.00 | 0.00 | 0.00 | 93 | 1011.4 |
| 20260510075553 | 53 | 343 | 0.0 | 0.0 | 0.00 | 0.00 | 0.00 | 93 | 1011.4 |
| 20260510075040 | 53 | 343 | 0.0 | 0.0 | 0.00 | 0.00 | 0.00 | 93 | 1011.4 |
| 20260510074506 | 53 | 343 | 0.0 | 0.0 | 0.00 | 0.00 | 0.00 | 93 | 1011.4 |
| 20260510074006 | 53 | 343 | 0.0 | 0.0 | 0.00 | 0.00 | 0.00 | 93 | 1011.4 |
| 20260510073439 | 53 | 343 | 0.0 | 0.0 | 0.00 | 0.00 | 0.00 | 93 | 1011.3 |
| 20260510072934 | 53 | 343 | 0.0 | 0.0 | 0.00 | 0.00 | 0.00 | 93 | 1011.3 |
| 20260510072411 | 53 | 343 | 0.0 | 0.0 | 0.00 | 0.00 | 0.00 | 93 | 1011.4 |
| 20260510072127 | 53 | 343 | 0.0 | 0.0 | 0.00 | 0.00 | 0.00 | 93 | 1011.4 |
| 20260510071348 | 53 | 343 | 0.0 | 0.0 | 0.00 | 0.00 | 0.00 | 93 | 1011.4 |
| 20260510070814 | 53 | 343 | 0.0 | 0.0 | 0.00 | 0.00 | 0.00 | 93 | 1011.5 |
| 20260510070239 | 53 | 343 | 0.0 | 0.0 | 0.00 | 0.00 | 0.00 | 92 | 1011.5 |
| 20260510065734 | 53 | 343 | 0.0 | 0.0 | 0.00 | 0.00 | 0.00 | 92 | 1011.5 |
| 20260510065221 | 53 | 343 | 0.0 | 0.0 | 0.00 | 0.00 | 0.00 | 92 | 1011.4 |
| 20260510064704 | 53 | 343 | 0.0 | 0.0 | 0.00 | 0.00 | 0.00 | 92 | 1011.4 |
| 20260510064201 | 53 | 343 | 0.0 | 0.0 | 0.00 | 0.00 | 0.00 | 92 | 1011.2 |
| 20260510063622 | 53 | 343 | 0.0 | 0.0 | 0.00 | 0.00 | 0.00 | 92 | 1011.0 |
| 20260510063041 | 53 | 343 | 0.0 | 0.0 | 0.00 | 0.00 | 0.00 | 92 | 1011.0 |
| 20260510062458 | 53 | 343 | 0.0 | 0.0 | 0.00 | 0.00 | 0.00 | 92 | 1011.0 |
| 20260510061929 | 53 | 343 | 0.0 | 0.0 | 0.00 | 0.00 | 0.00 | 92 | 1010.9 |
| 20260510061411 | 53 | 343 | 0.0 | 0.0 | 0.00 | 0.00 | 0.00 | 92 | 1010.9 |
| 20260510060908 | 53 | 343 | 0.0 | 0.0 | 0.00 | 0.00 | 0.00 | 92 | 1010.9 |
| 20260510060353 | 53 | 343 | 0.0 | 0.0 | 0.00 | 0.00 | 0.00 | 92 | 1010.9 |
| 20260510055850 | 53 | 343 | 0.0 | 0.0 | 0.00 | 0.00 | 0.00 | 91 | 1010.9 |
| 20260510055347 | 54 | 343 | 0.0 | 0.0 | 0.00 | 0.00 | 0.00 | 91 | 1010.9 |
| 20260510054850 | 54 | 343 | 0.0 | 0.0 | 0.00 | 0.00 | 0.00 | 91 | 1011.0 |
| 20260510054604 | 54 | 343 | 0.0 | 0.0 | 0.00 | 0.00 | 0.00 | 91 | 1011.0 |
| 20260510053828 | 54 | 343 | 0.0 | 0.0 | 0.00 | 0.00 | 0.00 | 91 | 1011.0 |
| 20260510053321 | 54 | 343 | 0.0 | 0.0 | 0.00 | 0.00 | 0.00 | 91 | 1011.0 |
| 20260510052810 | 54 | 343 | 0.0 | 0.0 | 0.00 | 0.00 | 0.00 | 91 | 1010.9 |
| 20260510052306 | 54 | 343 | 0.0 | 0.0 | 0.00 | 0.00 | 0.00 | 91 | 1010.8 |
| 20260510052027 | 54 | 343 | 0.0 | 0.0 | 0.00 | 0.00 | 0.00 | 90 | 1010.9 |
| 20260510051522 | 54 | 343 | 0.0 | 0.0 | 0.00 | 0.00 | 0.00 | 90 | 1010.9 |
| 20260510050751 | 54 | 343 | 0.0 | 0.0 | 0.00 | 0.00 | 0.00 | 90 | 1011.0 |
| 20260510050444 | 54 | 343 | 0.0 | 0.0 | 0.00 | 0.00 | 0.00 | 90 | 1010.9 |
| 20260510045707 | 55 | 343 | 0.0 | 0.0 | 0.00 | 0.00 | 0.00 | 90 | 1010.9 |
| 20260510045202 | 55 | 343 | 0.0 | 0.0 | 0.00 | 0.00 | 0.00 | 89 | 1010.9 |
| 20260510044647 | 55 | 343 | 0.0 | 0.0 | 0.00 | 0.00 | 0.00 | 89 | 1010.9 |
| 20260510044147 | 55 | 343 | 0.0 | 0.0 | 0.00 | 0.00 | 0.00 | 89 | 1010.9 |
| 20260510044103 | 55 | 343 | 0.0 | 0.0 | 0.00 | 0.00 | 0.00 | 89 | 1010.8 |
| 20260510043055 | 55 | 343 | 0.0 | 0.0 | 0.00 | 0.00 | 0.00 | 88 | 1010.8 |
| 20260510042550 | 55 | 343 | 0.0 | 0.0 | 0.00 | 0.00 | 0.00 | 88 | 1011.0 |
| 20260510042050 | 56 | 343 | 0.0 | 0.0 | 0.00 | 0.00 | 0.00 | 88 | 1011.0 |
| 20260510041537 | 56 | 343 | 0.0 | 0.0 | 0.00 | 0.00 | 0.00 | 88 | 1010.9 |
| 20260510041034 | 56 | 343 | 0.0 | 0.0 | 0.00 | 0.00 | 0.00 | 88 | 1011.0 |
| 20260510040744 | 56 | 343 | 0.0 | 0.0 | 0.00 | 0.00 | 0.00 | 88 | 1011.0 |
| 20260510040018 | 56 | 343 | 0.0 | 0.0 | 0.00 | 0.00 | 0.00 | 88 | 1010.9 |
| 20260510035731 | 56 | 343 | 0.0 | 0.0 | 0.00 | 0.00 | 0.00 | 88 | 1010.9 |
| 20260510035006 | 56 | 343 | 0.0 | 0.0 | 0.00 | 0.00 | 0.00 | 88 | 1010.9 |
| 20260510034449 | 57 | 343 | 0.0 | 0.0 | 0.00 | 0.00 | 0.00 | 88 | 1011.0 |
| 20260510033940 | 57 | 343 | 0.0 | 0.0 | 0.00 | 0.00 | 0.00 | 87 | 1011.0 |
| 20260510033435 | 57 | 343 | 0.0 | 0.0 | 0.00 | 0.00 | 0.00 | 87 | 1011.0 |
| 20260510033213 | 57 | 343 | 0.0 | 0.0 | 0.00 | 0.00 | 0.00 | 87 | 1011.0 |
| 20260510032414 | 57 | 343 | 0.0 | 0.0 | 0.00 | 0.00 | 0.00 | 87 | 1010.9 |
| 20260510031912 | 58 | 343 | 0.0 | 0.0 | 0.00 | 0.00 | 0.00 | 87 | 1011.0 |
| 20260510031359 | 58 | 343 | 0.0 | 0.0 | 0.00 | 0.00 | 0.00 | 87 | 1011.1 |
| 20260510030856 | 58 | 343 | 0.0 | 0.0 | 0.00 | 0.00 | 0.00 | 86 | 1011.1 |
| 20260510030357 | 58 | 343 | 0.0 | 0.0 | 0.00 | 0.00 | 0.00 | 86 | 1011.0 |
| 20260510025850 | 58 | 343 | 0.0 | 0.0 | 0.00 | 0.00 | 0.00 | 86 | 1011.0 |
| 20260510025344 | 58 | 343 | 0.0 | 0.0 | 0.00 | 0.00 | 0.00 | 85 | 1010.9 |
| 20260510024831 | 59 | 343 | 0.0 | 0.0 | 0.00 | 0.00 | 0.00 | 84 | 1010.9 |
| 20260510024804 | 59 | 343 | 0.0 | 0.0 | 0.00 | 0.00 | 0.00 | 84 | 1010.9 |
| 20260510023811 | 60 | 343 | 0.0 | 0.0 | 0.00 | 0.00 | 0.00 | 84 | 1011.0 |
| 20260510023309 | 60 | 343 | 0.0 | 0.0 | 0.00 | 0.00 | 0.00 | 83 | 1010.9 |
| 20260510022809 | 60 | 343 | 0.0 | 0.0 | 0.00 | 0.00 | 0.00 | 83 | 1010.8 |
| 20260510022307 | 61 | 343 | 0.0 | 0.0 | 0.00 | 0.00 | 0.00 | 82 | 1010.7 |
| 20260510021757 | 61 | 343 | 0.0 | 0.0 | 0.00 | 0.00 | 0.00 | 82 | 1010.6 |
| 20260510021247 | 61 | 343 | 0.0 | 0.0 | 0.00 | 0.00 | 0.00 | 81 | 1010.5 |
| 20260510020747 | 62 | 343 | 0.0 | 0.0 | 0.00 | 0.00 | 0.00 | 81 | 1010.5 |
| 20260510020500 | 62 | 343 | 0.0 | 0.0 | 0.00 | 0.00 | 0.00 | 80 | 1010.5 |
| 20260510015740 | 63 | 343 | 0.0 | 0.0 | 0.00 | 0.00 | 0.00 | 79 | 1010.4 |
| 20260510015229 | 63 | 343 | 0.0 | 0.0 | 0.00 | 0.00 | 0.00 | 78 | 1010.3 |
| 20260510014712 | 64 | 343 | 0.0 | 0.0 | 0.00 | 0.00 | 0.00 | 76 | 1010.2 |
| 20260510014207 | 64 | 343 | 0.0 | 0.0 | 0.00 | 0.00 | 0.00 | 76 | 1010.0 |
| 20260510013654 | 65 | 343 | 0.0 | 0.0 | 0.00 | 0.00 | 0.00 | 74 | 1010.1 |
| 20260510013412 | 66 | 343 | 0.0 | 0.0 | 0.00 | 0.00 | 0.00 | 74 | 1010.0 |
| 20260510012856 | 66 | 343 | 0.0 | 0.0 | 0.00 | 0.00 | 0.00 | 73 | 1009.9 |
| 20260510012125 | 67 | 343 | 0.0 | 0.0 | 0.00 | 0.00 | 0.00 | 73 | 1009.8 |
| 20260510011857 | 68 | 343 | 0.0 | 0.0 | 0.00 | 0.00 | 0.00 | 71 | 1009.8 |
| 20260510011123 | 69 | 343 | 0.0 | 0.0 | 0.00 | 0.00 | 0.00 | 68 | 1009.8 |
| 20260510010623 | 70 | 343 | 0.0 | 0.0 | 0.00 | 0.00 | 0.00 | 66 | 1009.7 |
| 20260510010111 | 71 | 343 | 0.0 | 0.0 | 0.00 | 0.00 | 0.00 | 65 | 1009.7 |
| 20260510005835 | 72 | 343 | 0.0 | 0.0 | 0.00 | 0.00 | 0.00 | 64 | 1009.6 |
| 20260510005108 | 73 | 343 | 0.0 | 0.0 | 0.00 | 0.00 | 0.00 | 63 | 1009.5 |
| 20260510004557 | 74 | 343 | 0.0 | 0.0 | 0.00 | 0.00 | 0.00 | 62 | 1009.5 |
| 20260510004322 | 75 | 343 | 0.0 | 0.0 | 0.00 | 0.00 | 0.00 | 61 | 1009.4 |
| 20260510003539 | 76 | 343 | 0.0 | 0.0 | 0.00 | 0.00 | 0.00 | 59 | 1009.4 |
| 20260510003010 | 78 | 343 | 0.0 | 0.0 | 0.00 | 0.00 | 0.00 | 56 | 1009.4 |
| 20260510002448 | 79 | 343 | 0.0 | 0.0 | 0.00 | 0.00 | 0.00 | 54 | 1009.3 |
| 20260510001953 | 80 | 343 | 0.0 | 0.0 | 0.00 | 0.00 | 0.00 | 53 | 1009.3 |
| 20260510001418 | 80 | 343 | 0.0 | 0.0 | 0.00 | 0.00 | 0.00 | 53 | 1009.3 |
| 20260510001119 | 81 | 343 | 0.0 | 0.0 | 0.00 | 0.00 | 0.00 | 52 | 1009.2 |
| 20260510000356 | 81 | 343 | 0.0 | 0.0 | 0.00 | 0.00 | 0.00 | 53 | 1009.2 |
| 20260509235851 | 81 | 342 | 0.0 | 0.0 | 0.00 | 0.00 | 0.00 | 51 | 1009.2 |
| 20260509235333 | 81 | 343 | 0.0 | 0.0 | 0.00 | 0.00 | 0.00 | 52 | 1009.2 |
| 20260509234820 | 82 | 343 | 0.0 | 0.0 | 0.00 | 0.00 | 0.00 | 53 | 1009.2 |
| 20260509234548 | 83 | 343 | 0.0 | 0.0 | 0.00 | 0.00 | 0.00 | 53 | 1009.1 |
| 20260509233818 | 83 | 343 | 0.0 | 0.0 | 0.00 | 0.00 | 0.00 | 53 | 1009.1 |
| 20260509233305 | 83 | 343 | 0.0 | 0.0 | 0.00 | 0.00 | 0.00 | 48 | 1009.1 |
| 20260509232804 | 84 | 342 | 0.0 | 0.0 | 0.00 | 0.00 | 0.00 | 45 | 1009.1 |
| 20260509232306 | 85 | 343 | 0.0 | 0.0 | 0.00 | 0.00 | 0.00 | 48 | 1009.2 |
| 20260509231806 | 85 | 342 | 0.0 | 0.0 | 0.00 | 0.00 | 0.00 | 44 | 1009.2 |
| 20260509231301 | 85 | 343 | 0.0 | 0.0 | 0.00 | 0.00 | 0.00 | 44 | 1009.2 |
| 20260509230756 | 85 | 342 | 0.0 | 0.0 | 0.00 | 0.00 | 0.00 | 37 | 1009.2 |
| 20260509230256 | 86 | 342 | 0.0 | 0.0 | 0.00 | 0.00 | 0.00 | 40 | 1009.1 |
| 20260509225801 | 86 | 342 | 0.0 | 0.0 | 0.00 | 0.00 | 0.00 | 36 | 1008.9 |
| 20260509225510 | 86 | 343 | 0.0 | 0.0 | 0.00 | 0.00 | 0.00 | 37 | 1008.9 |
| 20260509224749 | 86 | 343 | 0.0 | 0.0 | 0.00 | 0.00 | 0.00 | 37 | 1008.9 |
| 20260509224240 | 86 | 343 | 0.0 | 0.0 | 0.00 | 0.00 | 0.00 | 33 | 1008.9 |
| 20260509223743 | 86 | 343 | 0.0 | 0.0 | 0.00 | 0.00 | 0.00 | 34 | 1008.9 |
| 20260509223446 | 86 | 343 | 0.0 | 0.0 | 0.00 | 0.00 | 0.00 | 33 | 1008.8 |
| 20260509222720 | 86 | 343 | 0.0 | 0.0 | 0.00 | 0.00 | 0.00 | 37 | 1008.7 |
| 20260509222157 | 86 | 284 | 0.0 | 0.0 | 0.00 | 0.00 | 0.00 | 35 | 1008.7 |
| 20260509221700 | 86 | 284 | 0.0 | 0.0 | 0.00 | 0.00 | 0.00 | 36 | 1008.9 |
| 20260509221634 | 86 | 284 | 0.0 | 0.0 | 0.00 | 0.00 | 0.00 | 32 | 1008.9 |
| 20260509220648 | 86 | 285 | 0.0 | 0.0 | 0.00 | 0.00 | 0.00 | 34 | 1009.0 |
| 20260509220407 | 86 | 285 | 0.0 | 0.0 | 0.00 | 0.00 | 0.00 | 33 | 1009.0 |
| 20260509215627 | 86 | 285 | 0.0 | 0.0 | 0.00 | 0.00 | 0.00 | 33 | 1009.1 |
| 20260509215113 | 85 | 284 | 0.0 | 0.0 | 0.00 | 0.00 | 0.00 | 32 | 1009.1 |
| 20260509214607 | 85 | 284 | 0.0 | 0.0 | 0.00 | 0.00 | 0.00 | 36 | 1009.1 |
| 20260509214109 | 85 | 284 | 0.0 | 0.0 | 0.00 | 0.00 | 0.00 | 33 | 1009.1 |
| 20260509213601 | 85 | 277 | 0.0 | 0.0 | 0.00 | 0.00 | 0.00 | 39 | 1009.1 |
| 20260509213057 | 85 | 219 | 0.0 | 0.0 | 0.00 | 0.00 | 0.00 | 34 | 1009.2 |
| 20260509212535 | 85 | 219 | 0.0 | 1.7 | 0.00 | 0.00 | 0.00 | 37 | 1009.2 |
| 20260509212257 | 85 | 219 | 0.0 | 1.7 | 0.00 | 0.00 | 0.00 | 38 | 1009.1 |
| 20260509211522 | 85 | 170 | 0.0 | 0.0 | 0.00 | 0.00 | 0.00 | 37 | 1009.1 |
| 20260509211024 | 85 | 5 | 0.0 | 0.0 | 0.00 | 0.00 | 0.00 | 36 | 1009.0 |
| 20260509210747 | 85 | 5 | 0.0 | 0.0 | 0.00 | 0.00 | 0.00 | 36 | 1009.2 |
| 20260509210007 | 85 | 170 | 0.0 | 0.0 | 0.00 | 0.00 | 0.00 | 36 | 1009.3 |
| 20260509205500 | 85 | 159 | 0.0 | 0.0 | 0.00 | 0.00 | 0.00 | 37 | 1009.2 |
| 20260509204959 | 85 | 172 | 0.0 | 2.6 | 0.00 | 0.00 | 0.00 | 37 | 1009.2 |
| 20260509204455 | 85 | 173 | 0.0 | 2.6 | 0.00 | 0.00 | 0.00 | 40 | 1009.3 |
| 20260509203941 | 84 | 225 | 0.0 | 0.0 | 0.00 | 0.00 | 0.00 | 36 | 1009.2 |
| 20260509203442 | 84 | 223 | 0.0 | 0.0 | 0.00 | 0.00 | 0.00 | 38 | 1009.2 |
| 20260509202946 | 84 | 217 | 0.0 | 0.0 | 0.00 | 0.00 | 0.00 | 35 | 1009.3 |
| 20260509202413 | 84 | 142 | 0.0 | 0.0 | 0.00 | 0.00 | 0.00 | 36 | 1009.2 |
| 20260509201904 | 84 | 66 | 0.0 | 0.0 | 0.00 | 0.00 | 0.00 | 36 | 1009.2 |
| 20260509201400 | 84 | 62 | 0.0 | 0.0 | 0.00 | 0.00 | 0.00 | 39 | 1009.3 |
| 20260509200858 | 84 | 245 | 0.0 | 0.0 | 0.00 | 0.00 | 0.00 | 41 | 1009.3 |
| 20260509200355 | 83 | 128 | 0.0 | 0.9 | 0.00 | 0.00 | 0.00 | 39 | 1009.3 |
| 20260509195855 | 83 | 121 | 0.0 | 2.6 | 0.00 | 0.00 | 0.00 | 40 | 1009.4 |
| 20260509195326 | 83 | 86 | 0.0 | 2.6 | 0.00 | 0.00 | 0.00 | 39 | 1009.3 |
| 20260509194827 | 83 | 169 | 0.9 | 3.5 | 0.00 | 0.00 | 0.00 | 39 | 1009.4 |
| 20260509194533 | 83 | 177 | 0.0 | 2.6 | 0.00 | 0.00 | 0.00 | 42 | 1009.5 |
| 20260509193813 | 82 | 340 | 0.0 | 0.0 | 0.00 | 0.00 | 0.00 | 43 | 1009.4 |
| 20260509193253 | 82 | 290 | 0.0 | 0.0 | 0.00 | 0.00 | 0.00 | 39 | 1009.4 |
| 20260509192751 | 82 | 112 | 0.0 | 1.7 | 0.00 | 0.00 | 0.00 | 38 | 1009.5 |
| 20260509192253 | 82 | 113 | 0.9 | 3.5 | 0.00 | 0.00 | 0.00 | 43 | 1009.5 |
| 20260509191748 | 82 | 124 | 0.9 | 4.3 | 0.00 | 0.00 | 0.00 | 39 | 1009.5 |
| 20260509191253 | 82 | 131 | 0.9 | 4.3 | 0.00 | 0.00 | 0.00 | 42 | 1009.6 |
| 20260509190749 | 81 | 38 | 0.0 | 0.0 | 0.00 | 0.00 | 0.00 | 45 | 1009.6 |
| 20260509190249 | 81 | 202 | 0.0 | 2.6 | 0.00 | 0.00 | 0.00 | 46 | 1009.7 |
| 20260509185745 | 81 | 215 | 0.0 | 2.6 | 0.00 | 0.00 | 0.00 | 44 | 1009.6 |
| 20260509185242 | 80 | 270 | 0.0 | 5.2 | 0.00 | 0.00 | 0.00 | 46 | 1009.6 |
| 20260509184742 | 80 | 288 | 0.0 | 5.2 | 0.00 | 0.00 | 0.00 | 48 | 1009.6 |
| 20260509184240 | 80 | 267 | 0.0 | 0.0 | 0.00 | 0.00 | 0.00 | 44 | 1009.5 |
| 20260509183733 | 80 | 271 | 0.0 | 0.0 | 0.00 | 0.00 | 0.00 | 43 | 1009.7 |
| 20260509183227 | 80 | 271 | 0.0 | 1.7 | 0.00 | 0.00 | 0.00 | 42 | 1009.7 |
| 20260509183206 | 79 | 169 | 0.9 | 3.5 | 0.00 | 0.00 | 0.00 | 41 | 1009.8 |
| 20260509182212 | 79 | 253 | 1.7 | 4.3 | 0.00 | 0.00 | 0.00 | 41 | 1009.7 |
| 20260509181706 | 79 | 261 | 1.7 | 6.1 | 0.00 | 0.00 | 0.00 | 49 | 1009.8 |
| 20260509181207 | 79 | 267 | 1.7 | 6.1 | 0.00 | 0.00 | 0.00 | 46 | 1009.8 |
| 20260509180705 | 79 | 257 | 0.9 | 3.5 | 0.00 | 0.00 | 0.00 | 49 | 1009.9 |
| 20260509180203 | 79 | 268 | 0.9 | 2.6 | 0.00 | 0.00 | 0.00 | 47 | 1010.0 |
| 20260509175654 | 79 | 196 | 1.7 | 4.3 | 0.00 | 0.00 | 0.00 | 48 | 1010.0 |
| 20260509175209 | 79 | 248 | 0.9 | 4.3 | 0.00 | 0.00 | 0.00 | 44 | 1010.0 |
| 20260509174654 | 79 | 57 | 0.9 | 3.5 | 0.00 | 0.00 | 0.00 | 46 | 1010.0 |
| 20260509174149 | 79 | 290 | 1.7 | 6.1 | 0.00 | 0.00 | 0.00 | 53 | 1010.0 |
| 20260509173644 | 79 | 215 | 2.6 | 6.1 | 0.00 | 0.00 | 0.00 | 48 | 1010.0 |
| 20260509173135 | 79 | 195 | 0.9 | 6.1 | 0.00 | 0.00 | 0.00 | 49 | 1010.0 |
| 20260509172630 | 79 | 255 | 0.9 | 3.5 | 0.00 | 0.00 | 0.00 | 48 | 1010.1 |
| 20260509172132 | 79 | 46 | 0.9 | 6.1 | 0.00 | 0.00 | 0.00 | 52 | 1010.1 |
| 20260509171617 | 79 | 263 | 0.9 | 7.8 | 0.00 | 0.00 | 0.00 | 49 | 1010.1 |
| 20260509171116 | 79 | 24 | 0.9 | 7.8 | 0.00 | 0.00 | 0.00 | 54 | 1010.0 |
| 20260509170612 | 78 | 294 | 0.9 | 3.5 | 0.00 | 0.00 | 0.00 | 61 | 1009.9 |
| 20260509170118 | 78 | 340 | 0.9 | 3.5 | 0.00 | 0.00 | 0.00 | 54 | 1010.0 |
| 20260509165609 | 77 | 40 | 0.9 | 2.6 | 0.00 | 0.00 | 0.00 | 53 | 1010.0 |
| 20260509165104 | 77 | 273 | 0.9 | 2.6 | 0.00 | 0.00 | 0.00 | 55 | 1010.1 |